• Processing (Info)

  • MPEC 2018-U32 : 2018 TO6

    The following Minor Planet Electronic Circular may be linked-to from your own Web pages, but must not otherwise be redistributed electronically.

    A form allowing access to any MPEC is at the bottom of this page.


    Read MPEC 2018-U31 Read MPEC 2018-U33


    M.P.E.C. 2018-U32                                Issued 2018 Oct. 19, 15:50 UT
    
         The Minor Planet Electronic Circulars contain information on unusual
             minor planets and routine data on comets.  They are published
        on behalf of Division F of the International Astronomical Union by the
              Minor Planet Center, Smithsonian Astrophysical Observatory,
                              Cambridge, MA 02138, U.S.A.
    
                 Prepared using the Tamkin Foundation Computer Network
    
                                  MPC@CFA.HARVARD.EDU
                URL https://www.minorplanetcenter.net/    ISSN 1523-6714
    
                                       2018 TO6
    
    Observations:
         K18T06O  C2018 10 10.23088120 41 48.944+06 14 17.12         21.9 GVEU032F52
         K18T06O  C2018 10 10.25901120 41 49.419+06 14 37.32         21.7 GVEU032F52
         K18T06O  C2018 10 10.27297120 41 49.656+06 14 47.54         21.3 GVEU032F52
         K18T06O* S2018 10 15.88968 20 45 03.03 +07 23 41.1          19   RLEU032C51
         K18T06O  s2018 10 15.88968 1 + 5058.1318 - 4413.2224 + 1392.3546   EU032C51
         K18T06O  S2018 10 16.02058 20 45 09.02 +07 25 19.3                LEU032C51
         K18T06O  s2018 10 16.02058 1 + 5062.3263 - 4400.8415 + 1415.8348   EU032C51
         K18T06O  S2018 10 16.21693 20 45 18.09 +07 27 46.3                LEU032C51
         K18T06O  s2018 10 16.21693 1 + 5068.4484 - 4382.1778 + 1451.0169   EU032C51
         K18T06O  S2018 10 16.28226 20 45 21.14 +07 28 35.1                LEU032C51
         K18T06O  s2018 10 16.28226 1 + 5090.7573 - 4378.9793 + 1381.3577   EU032C51
         K18T06O  S2018 10 16.28239 20 45 21.14 +07 28 34.7                LEU032C51
         K18T06O  s2018 10 16.28239 1 + 5070.4422 - 4375.9293 + 1462.7192   EU032C51
         K18T06O  S2018 10 16.41316 20 45 27.23 +07 30 15.6                LEU032C51
         K18T06O  s2018 10 16.41316 1 + 5094.8984 - 4366.5913 + 1404.8553   EU032C51
         K18T06O  S2018 10 16.47861 20 45 30.41 +07 31 03.1                LEU032C51
         K18T06O  s2018 10 16.47861 1 + 5096.9273 - 4360.3782 + 1416.6235   EU032C51
         K18T06O  S2018 10 16.54406 20 45 33.50 +07 31 52.3                LEU032C51
         K18T06O  s2018 10 16.54406 1 + 5098.9342 - 4354.1520 + 1428.3852   EU032C51
         K18T06O  S2018 10 16.60952 20 45 36.65 +07 32 42.1                LEU032C51
         K18T06O  s2018 10 16.60952 1 + 5100.9202 - 4347.9124 + 1440.1160   EU032C51
         K18T06O  S2018 10 16.67497 20 45 39.88 +07 33 30.1                LEU032C51
         K18T06O  s2018 10 16.67497 1 + 5102.8801 - 4341.6632 + 1451.8767   EU032C51
         K18T06O  S2018 10 16.74042 20 45 43.07 +07 34 18.9                LEU032C51
         K18T06O  s2018 10 16.74042 1 + 5104.8004 - 4335.3948 + 1463.6670   EU032C51
         K18T06O  S2018 10 16.87132 20 45 49.43 +07 35 58.7                LEU032C51
         K18T06O  s2018 10 16.87132 1 + 5108.5988 - 4322.8310 + 1487.1565   EU032C51
         K18T06O  S2018 10 17.00210 20 45 55.79 +07 37 40.4                LEU032C51
         K18T06O  s2018 10 17.00210 1 + 5133.0976 - 4313.3931 + 1429.4354   EU032C51
         K18T06O  S2018 10 17.13300 20 46 02.42 +07 39 18.1                LEU032C51
         K18T06O  s2018 10 17.13300 1 + 5136.9262 - 4300.8699 + 1452.9840   EU032C51
         K18T06O KC2018 10 18.15133 20 46 55.31 +07 52 06.8                oEU032291
         K18T06O KC2018 10 18.15882 20 46 55.75 +07 52 12.6                oEU032291
         K18T06O KC2018 10 18.16635 20 46 56.06 +07 52 18.4                oEU032291
         K18T06O ^C2018 10 19.13582 20 47 50.44 +08 04 42.3          21.1 RoEU032695
         K18T06O ^C2018 10 19.14396 20 47 50.88 +08 04 48.4          21.5 RoEU032695
         K18T06O ^C2018 10 19.15210 20 47 51.30 +08 04 54.6          21.0 RoEU032695
    
    Observer details:
    291 LPL/Spacewatch II.  Observer R. A. Mastaler.  1.8-m f/2.7 reflector + CCD.
    695 Kitt Peak.  Observer A. F. Tubbiolo.  2.3-m f/9 reflector + CCD.
    C51 WISE.  Measurers A. K. Mainzer, J. M. Bauer, T. Grav, J. R. Masiero,
        J. P. Chesley, R. M. Cutri, J. W. Dailey, E. Kramer, S. Sonnett,
        E. L. Wright.
    F52 Pan-STARRS 2, Haleakala.  Observers J. Bulger, T. Dukes, T. Lowe,
        A. Schultz, M. Willman.  Measurers K. Chambers, S. Chastel, L. Denneau,
        H. Flewelling, M. Huber, E. Magnier, Y. Ramanjooloo, R. Wainscoat,
        R. Weryk.  1.8-m Ritchey-Chretien + CCD.
    
    Orbital elements:
    2018 TO6                                                 Earth MOID = 0.2992 AU
    Epoch 2019 Apr. 27.0 TT = JDT 2458600.5                 MPC
    M  31.90808              (2000.0)            P               Q
    n   0.21656693     Peri.   96.40935     +0.71142658     -0.68194495
    a   2.7462577      Node   306.74576     +0.53139983     +0.68010675
    e   0.5688349      Incl.   12.23220     +0.45987654     +0.26908342
    P   4.55           H   20.8           G   0.15           U   7
    Residuals in seconds of arc
    181010 F52  0.0   0.0     181016 C51  1.1-  1.6+    181017 C51  0.4+  0.5+
    181010 F52  0.0   0.1-    181016 C51  0.0   0.2-    181018 291  0.3-  0.1-
    181010 F52  0.0   0.1+    181016 C51  0.5-  0.3-    181018 291  0.8+  0.0
    181015 C51  0.1-  0.5+    181016 C51  0.4-  0.2+    181018 291  0.1-  0.1+
    181016 C51  0.2+  0.5+    181016 C51  0.7+  1.2-    181019 695  0.3-  0.1+
    181016 C51  0.1+  0.1+    181016 C51  0.9+  1.7-    181019 695  0.1-  0.0
    181016 C51  0.1+  0.4-    181016 C51  0.4+  0.8-    181019 695  0.1-  0.1-
    181016 C51  0.0   0.7-    181017 C51  1.1-  1.9+
    
    Ephemeris:
    2018 TO6                 a,e,i = 2.75, 0.57, 12                  q = 1.1841
    Date    TT    R. A. (2000) Decl.     Delta      r     Elong.  Phase     V
    2018 09 19    20 47 57.5 +02 04 11   0.5499  1.4501   135.7    28.9    21.6
    ...
    2018 10 04    20 40 40.4 +05 00 18   0.5443  1.3616   120.8    39.2    21.7
    ...
    2018 10 12    20 42 36.1 +06 35 45   0.5454  1.3195   114.3    43.6    21.8
    ...
    2018 10 18    20 46 47.4 +07 50 17   0.5467  1.2908   110.1    46.5    21.8
    2018 10 19    20 47 42.8 +08 03 03   0.5469  1.2863   109.5    46.9    21.8
    2018 10 20    20 48 42.0 +08 15 56   0.5471  1.2818   108.8    47.3    21.8
    ...
    2018 10 26    20 55 55.7 +09 35 44   0.5481  1.2569   105.5    49.7    21.8
    ...
    2018 11 03    21 09 00.4 +11 29 34   0.5488  1.2288   101.9    52.2    21.9
    ...
    2018 11 18    21 44 05.7 +15 28 04   0.5485  1.1937    97.8    55.1    21.9
    
    A. U. Tomatic                (C) Copyright 2018 MPC           M.P.E.C. 2018-U32
    

    Read MPEC 2018-U31 Read MPEC 2018-U33


    MPEC number:

    Enter an MPEC number in one of the following forms:

    • 1997-B01 (the full form)
    • J97B01 (the packed version of the full form)
    • B01 (the abbreviated form)